Buffalo, NY

2:58 PM EST on November 11, 2019 (GMT -0500)
Buffalo Niagara International

Weather History for KBUF - September, 2019

Change the Weather History Date:

Thursday, September 26, 2019

  Actual Average Record
Temperature  
Mean Temperature 63 °F 58 °F  
Max Temperature 71 °F 67 °F 88 °F (2017)
Min Temperature 54 °F 50 °F 35 °F (1928)
Degree Days  
Heating Degree Days 2 7  
Month to date heating degree days 26 102  
Since 1 July heating degree days 29 129  
Cooling Degree Days 0 1  
Month to date cooling degree days 52 51  
Year to date cooling degree days 597 538  
Growing Degree Days 14 (Base 50)    
Moisture  
Dew Point 52 °F    
Average Humidity 55    
Maximum Humidity 73    
Minimum Humidity 37    
Precipitation  
Precipitation 0.60 in 0.14 in 1.94 in (1977)
Month to date precipitation 6.04 3.34  
Year to date precipitation 34.41 28.50  
Snow  
Snow 0.00 in 0.00 in 0.00 in ()
Month to date snowfall 0.0 0.0  
Since 1 July snowfall 0.0 0.0  
Since 1 September snowfall 0.0 0.0  
Snow Depth 0.00 in    
Sea Level Pressure  
Sea Level Pressure 29.79 in    
Wind  
Wind Speed 10 mph (WSW)    
Max Wind Speed 25 mph    
Max Gust Speed 32 mph    
Visibility 9 miles    
Events Rain    
T = Trace of Precipitation, MM = Missing Value Source: NWS Daily Summary

Daily Weather History Graph

Daily Weather History Graph

Search for Another Location

Airport or City:

Astronomy

Sep. 26, 2019 Rise Set
Actual Time 7:06 AM EDT 7:05 PM EDT
Civil Twilight 6:38 AM EDT 7:33 PM EDT
Nautical Twilight 6:05 AM EDT 8:06 PM EDT
Astronomical Twilight 5:31 AM EDT 8:40 PM EDT
Moon 4:04 AM EDT (9/26) 6:22 PM EDT (9/26)
Length of Visible Light 12h 55m
Length of Day
11h 59m
Waning Crescent, 7% of the Moon is Illuminated
Sep 26
Waning Crescent
Sep 28
New
Oct 5
First Quarter
Oct 13
Full
Oct 21
Last Quarter

Hourly Weather History & Observations

Time (EDT) Temp. Dew Point Humidity Pressure Visibility Wind Dir Wind Speed Gust Speed Precip Events Conditions
12:54 AM 66.9 °F 53.1 °F 61% 29.73 in 10.0 mi SSW 8.1 mph - N/A   Scattered Clouds
1:54 AM 68.0 °F 53.1 °F 59% 29.73 in 10.0 mi SSW 6.9 mph - N/A   Mostly Cloudy
2:54 AM 66.9 °F 55.0 °F 66% 29.72 in 10.0 mi SW 6.9 mph - N/A   Overcast
4:54 AM 66.0 °F 57.9 °F 75% 29.69 in 10.0 mi South 6.9 mph - N/A   Mostly Cloudy
5:18 AM 64.9 °F 55.9 °F 73% 29.70 in 10.0 mi SSW 6.9 mph - N/A   Mostly Cloudy
5:47 AM 64.9 °F 57.0 °F 75% 29.70 in 10.0 mi South 6.9 mph - N/A   Mostly Cloudy
5:54 AM 64.9 °F 55.9 °F 73% 29.69 in 10.0 mi South 5.8 mph - N/A   Mostly Cloudy
6:13 AM 64.9 °F 55.9 °F 73% 29.70 in 10.0 mi SSW 4.6 mph - N/A   Mostly Cloudy
6:23 AM 64.9 °F 55.9 °F 73% 29.71 in 10.0 mi SSW 5.8 mph - N/A   Overcast
6:40 AM 64.9 °F 55.0 °F 70% 29.70 in 10.0 mi South 4.6 mph - N/A   Overcast
6:54 AM 64.0 °F 55.0 °F 73% 29.70 in 10.0 mi South 5.8 mph - N/A   Overcast
7:17 AM 63.0 °F 57.9 °F 84% 29.74 in 2.0 mi WNW 20.7 mph 28.8 mph 0.03 in Rain Heavy Rain
7:23 AM 61.0 °F 57.9 °F 90% 29.74 in 1.0 mi NW 16.1 mph 28.8 mph 0.24 in Rain Heavy Rain
7:27 AM 61.0 °F 57.9 °F 90% 29.73 in 1.2 mi NW 12.7 mph - 0.39 in Rain Heavy Rain
7:34 AM 61.0 °F 59.0 °F 93% 29.74 in 3.0 mi NW 11.5 mph 20.7 mph 0.49 in Rain Heavy Rain
7:54 AM 60.1 °F 55.9 °F 86% 29.75 in 10.0 mi North 12.7 mph - 0.52 in Rain Light Rain
8:33 AM 60.1 °F 57.0 °F 90% 29.76 in 10.0 mi North 3.5 mph - 0.07 in Rain Light Rain
8:54 AM 60.1 °F 57.0 °F 90% 29.77 in 10.0 mi Calm Calm - 0.08 in   Overcast
9:54 AM 61.0 °F 57.0 °F 87% 29.76 in 10.0 mi South 6.9 mph - 0.00 in Rain Light Rain
10:54 AM 62.1 °F 57.9 °F 86% 29.76 in 10.0 mi SSW 9.2 mph - 0.00 in   Mostly Cloudy
11:54 AM 66.0 °F 54.0 °F 65% 29.76 in 10.0 mi West 17.3 mph 23.0 mph N/A   Mostly Cloudy
12:54 PM 69.1 °F 50.0 °F 51% 29.77 in 10.0 mi WSW 15.0 mph - N/A   Scattered Clouds
1:54 PM 69.1 °F 50.0 °F 51% 29.78 in 10.0 mi West 13.8 mph - N/A   Mostly Cloudy
2:54 PM 70.0 °F 52.0 °F 53% 29.78 in 10.0 mi WSW 16.1 mph 28.8 mph N/A   Mostly Cloudy
3:54 PM 69.1 °F 46.9 °F 45% 29.80 in 10.0 mi West 19.6 mph 28.8 mph N/A   Mostly Cloudy
4:54 PM 70.0 °F 43.0 °F 38% 29.82 in 10.0 mi West 19.6 mph 24.2 mph N/A   Scattered Clouds
5:54 PM 68.0 °F 46.0 °F 45% 29.85 in 10.0 mi WNW 15.0 mph 20.7 mph N/A   Partly Cloudy
6:54 PM 64.9 °F 44.1 °F 47% 29.90 in 10.0 mi West 15.0 mph 23.0 mph N/A   Partly Cloudy
7:54 PM 62.1 °F 43.0 °F 50% 29.92 in 10.0 mi WNW 9.2 mph - N/A   Partly Cloudy
8:54 PM 62.1 °F 43.0 °F 50% 29.95 in 10.0 mi WNW 8.1 mph - N/A   Partly Cloudy
9:54 PM 60.1 °F 44.1 °F 55% 29.96 in 10.0 mi West 6.9 mph - N/A   Partly Cloudy
10:54 PM 57.9 °F 44.1 °F 60% 29.98 in 10.0 mi WNW 5.8 mph - N/A   Clear
11:54 PM 57.0 °F 45.0 °F 64% 29.99 in 10.0 mi NW 6.9 mph - N/A   Clear